Williamsport, PA

10:06 PM EDT on September 23, 2017 (GMT -0400)
Williamsport Rgnl

Weather History for KIPT - November, 2014

Change the Weather History Date:

Sunday, November 9, 2014

  Actual Average Record
Temperature  
Mean Temperature 45 °F 44 °F  
Max Temperature 52 °F 53 °F 73 °F (1895)
Min Temperature 37 °F 35 °F 19 °F (1971)
Degree Days  
Heating Degree Days 20 21  
Month to date heating degree days 173 178  
Since 1 July heating degree days 561 721  
Cooling Degree Days 0 0  
Month to date cooling degree days 0 0  
Year to date cooling degree days 713 702  
Moisture  
Dew Point 30 °F    
Average Humidity 59    
Maximum Humidity 76    
Minimum Humidity 41    
Precipitation  
Precipitation T in 0.11 in 2.16 in (1943)
Month to date precipitation 0.15 1.03  
Year to date precipitation 32.56 35.64  
Snow  
Snow 0.00 in 0.00 in 0.40 in (1973)
Month to date snowfall 0.0 0.3  
Since 1 July snowfall 0.0 0.4  
Since 1 September snowfall 0.0 0.4  
Snow Depth -    
Sea Level Pressure  
Sea Level Pressure 29.95 in    
Wind  
Wind Speed 4 mph (West)    
Max Wind Speed 16 mph    
Max Gust Speed 20 mph    
Visibility 10 miles    
Events Rain    
T = Trace of Precipitation, MM = Missing Value Source: NWS Daily Summary

Daily Weather History Graph

Daily Weather History Graph

Search for Another Location

Airport or City:

Trip Planner

Search our weather history database for the weather conditions in past years. The results will help you decide how hot, cold, wet, or windy it might be!

Date:

Astronomy

Nov. 09, 2014 Rise Set
Actual Time 6:48 AM EST 4:53 PM EST
Civil Twilight 6:19 AM EST 5:23 PM EST
Nautical Twilight 5:46 AM EST 5:56 PM EST
Astronomical Twilight 5:13 AM EST 6:28 PM EST
Moon 7:24 PM EST (11/9) 9:19 AM EST (11/9)
Length of Visible Light 11h 03m
Length of Day
10h 05m
Waning Gibbous, 91% of the Moon is Illuminated
Nov 9
Waning Gibbous
Nov 14
Last Quarter
Nov 22
New
Nov 29
First Quarter
Dec 6
Full

Hourly Weather History & Observations

Time (EST) Temp. Windchill Dew Point Humidity Pressure Visibility Wind Dir Wind Speed Gust Speed Precip Events Conditions
12:54 AM 44.1 °F - 28.0 °F 53% 29.86 in 10.0 mi Calm Calm - N/A   Overcast
1:54 AM 43.0 °F 41.3 °F 30.0 °F 60% 29.86 in 10.0 mi North 3.5 mph - N/A   Overcast
2:54 AM 42.1 °F - 30.0 °F 62% 29.87 in 10.0 mi Calm Calm - N/A   Overcast
3:54 AM 42.1 °F - 30.0 °F 62% 29.88 in 10.0 mi Calm Calm - N/A   Overcast
4:54 AM 42.1 °F - 32.0 °F 67% 29.90 in 10.0 mi Calm Calm - N/A   Overcast
5:54 AM 41.0 °F - 30.9 °F 67% 29.91 in 10.0 mi Calm Calm - N/A   Mostly Cloudy
6:54 AM 37.9 °F - 30.9 °F 76% 29.94 in 10.0 mi Calm Calm - N/A   Mostly Cloudy
7:54 AM 41.0 °F - 32.0 °F 70% 29.96 in 10.0 mi Calm Calm - N/A   Overcast
8:14 AM 41.0 °F - 32.0 °F 70% 29.96 in 10.0 mi Calm Calm - 0.00 in Rain Light Rain
8:21 AM 41.0 °F - 33.1 °F 73% 29.96 in 10.0 mi Calm Calm - 0.00 in   Overcast
8:54 AM 44.1 °F 42.5 °F 35.1 °F 71% 29.98 in 10.0 mi WNW 3.5 mph - 0.00 in   Overcast
9:54 AM 46.9 °F - 34.0 °F 61% 29.98 in 10.0 mi WSW 12.7 mph - N/A   Overcast
10:54 AM 50.0 °F - 33.1 °F 52% 29.98 in 10.0 mi WSW 10.4 mph - N/A   Mostly Cloudy
11:54 AM 51.1 °F - 30.0 °F 44% 29.96 in 10.0 mi West 11.5 mph - N/A   Clear
12:54 PM 51.1 °F - 28.9 °F 43% 29.95 in 10.0 mi WSW 15.0 mph - N/A   Mostly Cloudy
1:54 PM 51.1 °F - 28.9 °F 43% 29.93 in 10.0 mi WSW 10.4 mph - N/A   Partly Cloudy
2:54 PM 51.1 °F - 28.0 °F 41% 29.93 in 10.0 mi WNW 6.9 mph - N/A   Mostly Cloudy
3:54 PM 52.0 °F - 28.0 °F 40% 29.94 in 10.0 mi West 8.1 mph - N/A   Mostly Cloudy
4:54 PM 46.9 °F - 27.0 °F 46% 29.95 in 10.0 mi SSW 3.5 mph - N/A   Clear
5:54 PM 44.1 °F - 30.0 °F 58% 29.96 in 10.0 mi Calm Calm - N/A   Clear
6:54 PM 39.9 °F - 28.9 °F 65% 29.98 in 10.0 mi Calm Calm - N/A   Clear
7:54 PM 37.9 °F - 28.9 °F 70% 29.99 in 10.0 mi Calm Calm - N/A   Clear
8:54 PM 39.0 °F - 30.0 °F 70% 30.00 in 10.0 mi Calm Calm - N/A   Overcast
9:54 PM 39.0 °F - 30.0 °F 70% 30.01 in 10.0 mi Calm Calm - N/A   Overcast
10:54 PM 39.0 °F - 30.0 °F 70% 30.01 in 10.0 mi Calm Calm - N/A   Overcast
11:54 PM 37.9 °F - 30.0 °F 73% 30.02 in 10.0 mi Calm Calm - N/A   Clear